DW6702 Weather Reports


Display with metric or nautical units.
time (UTC)temp
F
wind
direction
speed
MPH
gust
MPH
rain 1hr
in
rain 24hr
in
rain mn
in
humidity
%
barometer
mb
20210623001004 69 86 0.0 1.0 0.00 0.26 0.26 94 1014.9
20210623000016 69 257 0.0 1.0 0.00 0.26 0.26 95 1014.8
20210622235009 69 259 0.0 1.0 0.00 0.26 0.26 95 1014.6
20210622234002 69 258 0.0 1.0 0.00 0.26 0.26 94 1014.5
20210622232958 70 257 0.0 1.0 0.00 0.26 0.26 93 1014.3
20210622232012 70 155 0.0 1.0 0.00 0.26 0.26 93 1014.1
20210622231003 70 130 0.0 2.0 0.00 0.26 0.26 93 1014.1
20210622230017 70 200 0.0 1.0 0.00 0.26 0.26 93 1013.8
20210622225007 70 68 0.0 2.0 0.00 0.26 0.26 94 1013.6
20210622223959 70 309 0.0 1.0 0.00 0.26 0.26 94 1013.4
20210622223011 71 199 0.0 1.0 0.00 0.26 0.26 95 1013.2
20210622222008 71 251 0.0 1.0 0.01 0.26 0.26 95 1013.0
20210622221001 70 319 0.0 1.0 0.01 0.26 0.26 96 1012.7
20210622220014 70 300 0.0 1.0 0.01 0.26 0.26 96 1012.7
20210622215007 70 300 0.0 1.0 0.01 0.26 0.26 95 1012.7
20210622213959 70 219 0.0 1.0 0.01 0.26 0.26 95 1012.7
20210622213053 70 217 0.0 1.0 0.02 0.26 0.26 95 1012.4
20210622212000 70 250 0.0 2.0 0.02 0.25 0.25 95 1012.1
20210622211013 70 243 0.0 1.0 0.02 0.25 0.25 95 1012.1
20210622210009 70 236 0.0 1.0 0.02 0.25 0.25 95 1012.2
20210622205001 70 324 0.0 1.0 0.02 0.25 0.25 95 1011.8
20210622204014 69 298 1.0 2.0 0.02 0.25 0.25 94 1011.8
20210622203012 69 262 1.0 3.0 0.01 0.24 0.24 93 1011.6
20210622202003 70 208 0.0 2.0 0.01 0.23 0.23 94 1011.4
20210622201013 70 250 0.0 2.0 0.03 0.23 0.23 94 1011.2
20210622200005 70 297 1.0 5.0 0.03 0.23 0.23 94 1011.1
20210622195001 70 299 1.0 3.0 0.10 0.23 0.23 95 1010.9
20210622194012 71 216 1.0 4.0 0.20 0.23 0.23 95 1010.8
20210622193004 71 226 1.0 3.0 0.20 0.23 0.23 95 1010.9
20210622191959 71 288 0.0 4.0 0.22 0.22 0.22 95 1010.7
20210622191012 71 265 1.0 2.0 0.20 0.20 0.20 95 1011.0
20210622190004 71 274 0.0 1.0 0.20 0.20 0.20 94 1011.1
20210622185016 71 250 0.0 3.0 0.13 0.13 0.13 92 1011.0
20210622184013 73 134 0.0 3.0 0.03 0.03 0.03 89 1010.8
20210622183005 76 152 1.0 5.0 0.03 0.03 0.03 84 1010.9
20210622182016 78 315 3.0 6.0 0.00 0.00 0.00 86 1010.5
20210622181013 78 243 3.0 8.0 0.00 0.00 0.00 86 1010.3
20210622180004 78 271 3.0 7.0 0.00 0.00 0.00 88 1010.6
20210622175017 79 211 2.0 10.0 0.00 0.00 0.00 87 1010.4
20210622174010 78 250 5.0 7.0 0.00 0.00 0.00 85 1010.4
20210622173007 77 211 2.0 5.0 0.00 0.00 0.00 87 1010.4
20210622171959 79 247 3.0 7.0 0.00 0.00 0.00 83 1010.5
20210622171011 79 231 3.0 6.0 0.00 0.00 0.00 82 1010.3
20210622170008 79 253 3.0 7.0 0.00 0.00 0.00 84 1010.5
20210622164959 78 283 3.0 5.0 0.00 0.00 0.00 87 1010.6
20210622164009 78 243 3.0 6.0 0.00 0.00 0.00 86 1010.7
20210622163001 77 243 2.0 5.0 0.00 0.00 0.00 87 1010.6
20210622162017 78 226 2.0 4.0 0.00 0.00 0.00 87 1010.6
20210622161010 78 251 4.0 8.0 0.00 0.00 0.00 87 1010.7
20210622160001 78 240 3.0 9.0 0.00 0.00 0.00 87 1010.8
20210622155012 77 195 4.0 6.0 0.00 0.00 0.00 89 1010.8
20210622154007 76 241 2.0 4.0 0.00 0.00 0.00 90 1010.8
20210622153000 76 237 2.0 5.0 0.00 0.00 0.00 89 1010.9
20210622152012 76 226 3.0 5.0 0.00 0.00 0.00 88 1010.9
20210622151009 77 222 3.0 6.0 0.00 0.00 0.00 87 1010.9
20210622150001 77 237 3.0 7.0 0.00 0.00 0.00 86 1010.9
20210622145013 78 222 2.0 5.0 0.00 0.00 0.00 87 1010.8
20210622144006 77 206 2.0 4.0 0.00 0.00 0.00 89 1010.8
20210622143002 76 248 2.0 5.0 0.00 0.00 0.00 89 1010.8
20210622141013 77 229 3.0 7.0 0.00 0.00 0.00 87 1010.9
20210622140009 77 203 2.0 6.0 0.00 0.00 0.00 87 1010.8
20210622135002 77 205 3.0 6.0 0.00 0.00 0.00 86 1010.9
20210622134014 77 251 2.0 7.0 0.00 0.00 0.00 86 1010.8
20210622133007 77 225 3.0 6.0 0.00 0.00 0.00 86 1010.9
20210622132003 77 225 4.0 5.0 0.00 0.00 0.00 86 1010.9
20210622131015 77 223 3.0 6.0 0.00 0.00 0.00 86 1010.9
20210622130009 77 229 1.0 3.0 0.00 0.00 0.00 86 1010.8
20210622125003 77 215 2.0 4.0 0.00 0.00 0.00 86 1010.8
20210622124016 77 220 1.0 4.0 0.00 0.00 0.00 86 1010.8
20210622123009 77 216 2.0 4.0 0.00 0.00 0.00 85 1010.8
20210622122001 77 245 2.0 5.0 0.00 0.00 0.00 85 1010.7
20210622121018 77 224 1.0 5.0 0.00 0.00 0.00 85 1010.6
20210622120010 77 250 4.0 5.0 0.00 0.00 0.00 85 1010.7
20210622115003 77 237 3.0 6.0 0.00 0.00 0.00 85 1010.6
20210622114020 77 223 2.0 6.0 0.00 0.00 0.00 85 1010.6
20210622113008 77 226 3.0 7.0 0.00 0.00 0.00 85 1010.6
20210622112001 77 205 2.0 6.0 0.00 0.00 0.00 85 1010.5
20210622111014 77 227 4.0 6.0 0.00 0.00 0.00 84 1010.4
20210622110010 77 222 3.0 6.0 0.00 0.00 0.00 84 1010.3
20210622105000 77 240 3.0 6.0 0.00 0.00 0.00 84 1010.2
20210622104012 77 237 4.0 7.0 0.00 0.00 0.00 85 1010.1
20210622103007 77 240 4.0 7.0 0.00 0.00 0.00 85 1010.1
20210622102000 77 248 3.0 6.0 0.00 0.00 0.00 85 1009.8
20210622101014 77 217 3.0 6.0 0.00 0.00 0.00 85 1009.7
20210622100006 77 247 2.0 8.0 0.00 0.00 0.00 85 1009.6
20210622095002 77 255 3.0 7.0 0.00 0.00 0.00 85 1009.6
20210622094013 77 212 4.0 6.0 0.00 0.00 0.00 86 1009.5
20210622093005 77 231 2.0 6.0 0.00 0.00 0.00 86 1009.5
20210622092001 77 219 2.0 6.0 0.00 0.00 0.00 86 1009.2
20210622091015 77 244 1.0 5.0 0.00 0.00 0.00 86 1009.1
20210622090005 77 208 3.0 5.0 0.00 0.00 0.00 86 1009.1
20210622085015 78 227 2.0 6.0 0.00 0.00 0.00 86 1009.3
20210622084013 78 202 3.0 4.0 0.00 0.00 0.00 87 1009.1
20210622083004 77 231 2.0 3.0 0.00 0.00 0.00 87 1009.2
20210622082017 78 226 1.0 5.0 0.00 0.00 0.00 87 1009.2
20210622081007 78 229 2.0 4.0 0.00 0.00 0.00 87 1009.0
20210622080004 78 216 1.0 4.0 0.00 0.00 0.00 86 1008.9
20210622075016 78 247 2.0 4.0 0.00 0.01 0.00 86 1008.8
20210622074007 78 223 1.0 3.0 0.00 0.01 0.00 86 1008.9
20210622073004 78 237 2.0 5.0 0.00 0.01 0.00 86 1009.0
20210622072016 78 241 2.0 4.0 0.00 0.01 0.00 85 1009.1
20210622071009 79 237 1.0 5.0 0.00 0.01 0.00 85 1009.2
20210622065958 79 244 2.0 3.0 0.00 0.04 0.00 85 1009.2
20210622065015 79 233 2.0 3.0 0.00 0.04 0.00 85 1009.4
20210622064007 79 236 2.0 4.0 0.00 0.04 0.00 85 1009.5
20210622062957 79 234 2.0 4.0 0.00 0.04 0.00 85 1009.6
20210622062012 79 247 2.0 5.0 0.00 0.04 0.00 84 1009.6
20210622061005 79 198 2.0 3.0 0.00 0.04 0.00 84 1009.6
20210622055958 79 241 2.0 4.0 0.00 0.04 0.00 84 1009.7
20210622055010 79 216 2.0 5.0 0.00 0.04 0.00 84 1009.9
20210622054007 79 227 2.0 3.0 0.00 0.04 0.00 84 1009.8
20210622052958 80 227 2.0 4.0 0.00 0.04 0.00 83 1009.9
20210622052011 80 229 2.0 4.0 0.00 0.04 0.00 83 1009.9
20210622051007 80 234 2.0 4.0 0.00 0.04 0.00 83 1009.9
20210622045959 80 193 2.0 4.0 0.00 0.04 0.00 83 1010.0
20210622045010 80 241 2.0 4.0 0.00 0.04 0.00 83 1010.0
20210622044001 80 247 2.0 4.0 0.00 0.04 0.00 83 1010.1
20210622042957 80 243 2.0 3.0 0.00 0.04 0.00 83 1010.1
20210622042011 80 237 1.0 3.0 0.00 0.04 0.00 83 1010.0
20210622041003 80 248 1.0 4.0 0.00 0.04 0.00 83 1010.2
20210622035000 80 236 2.0 3.0 0.00 0.04 0.04 83 1010.3
20210622034013 80 236 1.0 2.0 0.00 0.04 0.04 83 1010.4
20210622033004 80 220 1.0 2.0 0.00 0.04 0.04 83 1010.2
20210622032001 80 231 1.0 3.0 0.00 0.04 0.04 82 1010.6
20210622031014 80 243 1.0 2.0 0.00 0.04 0.04 82 1010.7
20210622030006 81 219 1.0 2.0 0.00 0.04 0.04 81 1010.7
20210622025003 81 227 2.0 3.0 0.00 0.04 0.04 80 1010.6
20210622024016 81 218 1.0 2.0 0.00 0.04 0.04 80 1010.5
20210622023008 82 229 2.0 3.0 0.00 0.04 0.04 80 1010.3
20210622022000 82 237 1.0 2.0 0.00 0.04 0.04 79 1010.5
20210622021017 82 247 1.0 2.0 0.00 0.04 0.04 79 1010.5
20210622020009 82 208 1.0 4.0 0.00 0.04 0.04 78 1010.5
20210622015002 82 223 2.0 3.0 0.00 0.04 0.04 78 1010.4
20210622013958 83 235 1.0 2.0 0.00 0.04 0.04 77 1010.1
20210622013011 83 211 1.0 3.0 0.00 0.04 0.04 76 1009.7
20210622012004 83 226 1.0 3.0 0.00 0.04 0.04 76 1009.6
20210622011014 83 200 1.0 3.0 0.00 0.04 0.04 76 1009.5
20210622010012 84 203 2.0 3.0 0.00 0.04 0.04 75 1009.4
20210622005004 84 227 1.0 2.0 0.00 0.04 0.04 75 1009.1
20210622004016 84 212 1.0 2.0 0.00 0.04 0.04 74 1009.0
20210622003009 85 226 0.0 2.0 0.00 0.04 0.04 73 1009.0
20210622002006 85 231 1.0 3.0 0.00 0.04 0.04 71 1009.0